Showing default

EXPLORER 25 (INJUN-4), 932

Orbit data source: Space-Track

EXPLORER 25 (INJUN-4), 932 is a payload satellite owned by NASA LaRC (US) in LEO that was launched on Sat, 21 Nov 1964 UTC via an SCOUT X-4 launch vehicle from the Air Force Western Test Range (AFWTR). Payload-class satellites include a variety of spacecraft equipped with specific instruments for various scientific and technological missions. These include communications satellites like Starlink; space stations such as the ISS; scientific satellites like the Hubble; Earth observation satellites from companies like Planet Labs, Umbra, and HawkEye 360; GPS; miniature CubeSats for education and research; and military/defense satellites.

Loading next visibility...
Identifier
932, 1964-076B
Orbit
LEO
Country
Flag of USUS
Related business
Manufacturer
BENDX/UIA
Mission
Spacecraft
Bus & Motor
BENDIX UTILITY, Unknown motor
Mass
41 kg wet, 41 kg dry
Launch date (UTC)
1964-11-21 (62 years ago)
Launch vehicle
SCOUT X-4
Launch site
Air Force Western Test Range (AFWTR)
Object type
Payload
Rocket body
Debris
Shape & HBR
POLY, 1.1 m
Radar Cross Section
Medium (>0.1 m² and <1 m²)

Expand to show TLE details & history
Last TLE update: 11 hours ago

TLE from 11 hours ago
0 EXPLORER 25 (INJUN-4)
1 00932U 64076B   26257.11385474  .00000325  00000-0  10606-3 0  9998
2 00932  81.3405 310.0425 1118430  66.6686 304.8024 12.67312999830391
Epoch: 2026-09-14T02:43Z
TLE epoch observation values (Epoch: 2026-09-14T02:43:57.049Z)
Latitude
-0.00004°
Longitude
-84.04402°
Altitude
971.402 km
Speed
7.564 km/s
True Right ascension
20h 40m 10s
True Declination
0° 00' 00"
Sunlit
Object was in full shadow at epoch
Visualization orbit readout
Latitude
Unknown
Longitude
Unknown
Altitude
Unknown
Speed
Unknown
Apparent Right ascension
Unknown
Apparent Declination
Unknown
Sunlit
N/A
Visualization observer readout
Local Sidereal Time
06:17:52
Azimuth
Unknown
Elevation
Unknown
Doppler factor
Unknown
Orbital elements
Apogee altitude
2,259.055 km
Perigee altitude
521.383 km
Semi-major axis
7,768.356 km
Eccentricity
0.11184
Inclination
81.3405°
RAAN
310.0425°
Arg. of periapsis
66.6686°
True anomaly
293.44513°
Mean anomaly
304.8024°
Eccentric anomaly
299.2091°
Mean motion
3.16993 °/min
Orbital period
113.57 mins
BSTAR
0.00010606
Loading maneuver chart data...
Computing Atmospheric mass density...
Loading historical data...
Loading historical data...
Loading historical data...
Loading historical data...
Loading historical data...
Loading historical data...
Loading historical data...

Documentation

Showing up to 5 results
|